LiveATC.Net - Listen to live air traffic control over the Internet!


ICAO: SVBM  IATA: BRM   Airport: Jacinto Lara Int'l Airport (Barquisimeto)
City: Barquisimeto
Country: Venezuela   Continent: South America
SVBM METAR Weather: SVBM 260300Z 09005KT 9999 BKN013 22/19 Q1018
SVBM Flight Activity (FlightAware)
SVBM Twr/Approach/Center
Feed Status: DOWN
Last heard on: 2016-04-18 18:12:03 (68 days 15 hours 44 minutes ago)
SVBM Twr/Approach/Center Audio Archives
FacilityFrequency
Aproximacion Barquisimeto 119.400
Barquisimeto Torre123.500


NOTICE

Unauthorized use prohibited. See LiveATC.net Terms of Service


Find LiveATC Audio Streams


Airport/ARTCC Code

Frequency
(e.g., 124.400, 128.75)
Site-wide search

Browse LiveATC Feeds
LiveATC Coverage Map
Top 50 LiveATC Feeds
Bad Weather Areas

LiveATC FAQ
Offer a LiveATC Feed
Contact LiveATC.net
Press Inquiries

LiveATC on iPhone
LiveATC on Android

Windows Phone
Windows 8/10

LiveATC Mobile
(Mobile browser)

ATC Audio Archives
Interesting Recordings

LiveATC Forums


Home Page
About LiveATC.net
Make a Donation
LiveATC Store

Terms of Use
Privacy Policy

Canadian Air Freqs

AIRMETs/SIGMETs

FAA Airport Status
Nat'l Airspace Status
Arrival Demand Charts


Server Software By:
Icecast.org
Liquidsoap